Regional Weather Roundup
Issued by NWS Cleveland, OH

Home | Current Version | Previous Version | Graphics & Text | Print | Product List | Glossary On
Versions: 1 2 3 4 5 6 7 8 9 10 11 12 13 14 15 16 17 18 19 20 21 22 23 24 25 26 27 28 29 30 31 32 33 34 35 36 37 38 39 40 41 42 43 44 45 46 47 48 49 50
000
ASUS41 KCLE 031800
RWRCLE
OHIO REGIONAL WEATHER ROUNDUP
NATIONAL WEATHER SERVICE WILMINGTON, OH
200 PM EDT MON AUG 03 2015

NOTE: "FAIR" INDICATES FEW OR NO CLOUDS BELOW 12,000 FEET WITH NO
SIGNIFICANT WEATHER AND/OR OBSTRUCTIONS TO VISIBILITY.

OHZ001>008-015>018-024>027-034-035-043-044-031900-
   NORTHWEST OHIO

CITY           SKY/WX    TMP DP  RH WIND       PRES   REMARKS
DEFIANCE       MOSUNNY   81  63  54 NW12G18   29.83S
FINDLAY        PTSUNNY   79  68  69 W10G21    29.83S
TOLEDO EXPRESS MOSUNNY   78  64  61 W10       29.81S
TOLEDO EXEC    MOSUNNY   81  63  54 SW9       29.82S
LIMA           CLOUDY    76  68  76 W12       29.85S
$$

OHZ009>014-019>023-028>033-038-089-031900-
   NORTHEAST OHIO

CITY           SKY/WX    TMP DP  RH WIND       PRES   REMARKS
CLE-HOPKINS    MOSUNNY   81  63  54 W10G20    29.84R
CLE-LAKEFRONT  MOSUNNY   77  65  66 W16       29.81R
CUY CO. ARPT   PTSUNNY   79  66  65 NW17      29.84R
LORAIN-ELYRIA  PTSUNNY   79  65  62 NW9       29.83S
ASHTABULA      CLOUDY    74  63  68 NW12      29.84R
AKRON-CANTON   MOSUNNY   82  62  50 W17G23    29.83S
WOOSTER        NOT AVBL
MANSFIELD      CLOUDY    76  66  71 W9        29.86S
YOUNGSTOWN     MOSUNNY   80  60  50 W9        29.83S
$$

OHZ042-051>053-060>062-070>072-077>081-031900-
  SOUTHWEST OHIO

CITY           SKY/WX    TMP DP  RH WIND       PRES   REMARKS
CINC-COVINGTON MOSUNNY   81  67  62 SW12G23   29.88F
CINC-LUNKEN    SUNNY     82  68  62 SW10      29.86F
HAMILTON       MOSUNNY   83  68  60 VRB7      29.87F
DAYTON         NOT AVBL
WRIGHT-PAT AFB NOT AVBL
DAYTON GENERAL SUNNY     81  65  58 SW16G22   29.86F
WILMINGTON     MOSUNNY   81  65  58 SW18      29.87S
$$

OHZ036-037-039>041-045>050-054>059-063>069-073>076-082>088-031900-
  CENTRAL AND SOUTHEAST OHIO

CITY           SKY/WX    TMP DP  RH WIND       PRES   REMARKS
COLUMBUS       MOSUNNY   83  62  49 SW16G24   29.84S
OSU AIRPORT    MOSUNNY   82  65  56 SW17G28   29.84F
BOLTON FIELD   SUNNY     81  66  61 SW10G18   29.86F
RICKENBACK AFB SUNNY     82  66  57 SW16      29.85S
NEWARK         PTSUNNY   86  62  44 SW14G22   29.84S
MARION         PTSUNNY   79  66  64 W14G22    29.85F
LANCASTER      SUNNY     84  65  52 SW13      29.86S
ZANESVILLE     PTSUNNY   85  63  47 W14       29.85S
NEW PHILLY     CLOUDY    80  67  64 W8        29.84F
$$



USA.gov is the U.S. government's official web portal to all federal, state and local government web resources and services.